OBJECT L, 64886

Orbit data source: Space-Track

You're viewing an Uncataloged Satellite

Recently launched and/or uncataloged satellites may have evolving metadata. Metadata may include but not limited to: Owner, Maufacturer, Bus, Motor, and Mission.

OBJECT L, 64886 is a satellite in SSO that was launched on Fri, 25 Jul 2025 UTC via a SOYUZ-2-1B launch vehicle from the Vostochny Cosmodrome (VOSTO). Unknown objects in Earth's orbit typically refer to objects detected orbiting the Earth but have not yet been identified or cataloged. These objects could be anything from previously untracked satellites, spent rocket stages, debris from satellite collisions, or even natural meteoroids temporarily captured by Earth's gravity.

Loading next visibility...
Identifier
64886, 2025-155L
Orbit
SSO
Country
Flag of TBDTBD
Related business
None
Manufacturer
Elm-o Sanat
Mission
Operational spacecraft
Bus & Motor
FAJR, Unknown motor
Mass
110 kg wet, 110 kg dry
Launch date (UTC)
2025-07-25 (1 month ago)
Launch vehicle
SOYUZ-2-1B
Launch site
Vostochny Cosmodrome (VOSTO)
Object type
Unknown
Shape & HBR
Unknown
Radar Cross Section
Medium (>0.1 m² and <1 m²)

Expand to show TLE details & history
Last TLE update: 8 hours ago

TLE from 8 hours ago
0 OBJECT L
1 64886U 25155L   25242.91528181  .00028762  00000-0  12141-2 0  9996
2 64886  97.4138 207.6695 0012111 110.0079 250.2464 15.23167020 36486
Epoch: 2025-08-30T21:58Z
TLE epoch observation values (Epoch: 2025-08-30T21:58:00.348Z)
Latitude
0.00008°
Longitude
-101.17469°
Altitude
502.213 km
Speed
7.612 km/s
True Right ascension
13h 50m 40s
True Declination
0° 00' 00"
Sunlit
Object was in daylight at epoch
Visualization orbit readout
Latitude
Unknown
Longitude
Unknown
Altitude
Unknown
Speed
Unknown
Apparent Right ascension
Unknown
Apparent Declination
Unknown
Sunlit
N/A
Visualization observer readout
Local Sidereal Time
21:43:47
Azimuth
Unknown
Elevation
Unknown
Doppler factor
Unknown
Orbital elements
Apogee altitude
501.579 km
Perigee altitude
484.935 km
Semi-major axis
6,871.394 km
Eccentricity
0.00121
Inclination
97.4138°
RAAN
207.6695°
Arg. of periapsis
110.0079°
True anomaly
250.11585°
Mean anomaly
250.2464°
Eccentric anomaly
250.18112°
Mean motion
3.81045 °/min
Orbital period
94.48 mins
BSTAR
0.0012141
Loading maneuver chart data...
Computing Atmospheric mass density...
Loading historical data...
Loading historical data...
Loading historical data...
Loading historical data...
Loading historical data...
Loading historical data...
Loading historical data...

Documentation

Showing up to 5 results
|